Regional Weather Roundup
Issued by NWS

Home | Current Version | Previous Version | Graphics & Text | Print | Product List | Glossary Off
Versions: 1 2 3 4 5 6 7 8 9 10 11 12 13 14 15 16 17 18 19 20 21 22 23 24 25 26 27 28 29 30 31 32 33 34 35 36 37 38 39 40 41 42 43 44 45 46 47 48 49 50

000
ASUS43 KMKX 290921
RWRWI

WISCONSIN REGIONAL WEATHER ROUNDUP
NATIONAL WEATHER SERVICE MILWAUKEE/SULLIVAN WI
400 AM CDT TUE JUL 29 2014

NOTE: "FAIR" INDICATES FEW OR NO CLOUDS BELOW 12,000 FEET WITH NO
SIGNIFICANT WEATHER AND/OR OBSTRUCTIONS TO VISIBILITY.

WIZ001-002-006>008-014>016-023>028-291000-
NORTHWEST WISCONSIN

CITY           SKY/WX    TMP DP  RH WIND       PRES   REMARKS
SUPERIOR ARPT  MOCLDY    55  53  90 CALM      30.08S
ASHLAND        CLOUDY    56  54  93 W5        30.06F
HAYWARD        MOCLDY    52  50  93 CALM      30.09R
SIREN          CLEAR     53  51  94 CALM      30.10S
RICE LAKE      NOT AVBL
LADYSMITH      CLEAR     57  54  89 NW5       30.08S
EAU CLAIRE     CLEAR     56  53  90 SW3       30.07S
MENOMONIE      SUNNY     59  55  87 W6        30.09R
NEW RICHMOND   CLEAR     56  54  94 CALM      30.11S
OSCEOLA        CLEAR     54  54 100 CALM      30.14R
$$

WIZ003>005-009-010-017-018-291000-
NORTH CENTRAL WISCONSIN

CITY           SKY/WX    TMP DP  RH WIND       PRES   REMARKS
WOODRUFF       PTCLDY    53  50  90 CALM      30.04S
RHINELANDER    PTCLDY    52  51  97 CALM      30.05R
EAGLE RIVER    PTCLDY    51  51 100 CALM      30.03S
LAND O LAKES   PTCLDY    49  48  97 CALM      30.03F FOG
PHILLIPS       CLEAR     53  53  99 W3        30.05S
TOMAHAWK       PTCLDY    50  49  97 CALM      30.05S FOG
MEDFORD        FOG       52  52 100 CALM      30.06S VSB 1
MERRILL        PTCLDY    54  53  98 CALM      30.05R
$$

WIZ029-030-035-036-043>047-291000-
CENTRAL WISCONSIN

CITY           SKY/WX    TMP DP  RH WIND       PRES   REMARKS
WAUSAU         PTCLDY    56  54  93 NW6       30.02F
MOSINEE        CLEAR     55  54  94 NW8       30.05S
MARSHFIELD     CLEAR     57  53  86 NW7       30.05S
STEVENS POINT  CLEAR     54  52  92 CALM      30.04S
WAUPACA        CLEAR     62  54  73 NW6       30.02S
WAUTOMA        CLEAR     59  55  86 NW8       30.03F
WISC RAPIDS    CLEAR     55  53  93 CALM      30.05F
CAMP DOUGLAS   PTCLDY    52  52 100 W7        30.05F
$$

WIZ011>013-019>022-031-037>040-048>050-291000-
NORTHEAST WISCONSIN

CITY           SKY/WX    TMP DP  RH WIND       PRES   REMARKS
ANTIGO         PTCLDY    52  51  99 N3        30.04R
STURGEON BAY   PTCLDY    59  54  82 NW3       29.98S
GREEN BAY      CLEAR     57  55  93 NW8       30.00R
MANITOWOC      PTCLDY    60  55  83 NW7       29.99S
APPLETON       CLEAR     55  52  88 W9        30.01S
CLINTONVILLE   CLEAR     57  54  88 NW6       30.01S
OSHKOSH        CLEAR     59  54  83 W6        30.00F
$$

WIZ032>034-041-042-053>061-291000-
SOUTHWEST WISCONSIN

CITY           SKY/WX    TMP DP  RH WIND       PRES   REMARKS
LA CROSSE      CLEAR     58  54  86 SE3       30.07F
SPARTA         CLEAR     50  49  95 CALM      30.08S
VIROQUA        FAIR      55  55 100 W5        30.08F
BOSCOBEL       CLEAR     54  52  93 SW3       30.08F
PRAIRIE DU CHI CLEAR     54  51  92 CALM      30.09S
PLATTEVILLE    FAIR      52  50  93 W5        30.09F
$$

WIZ056-057-062-063-064-067-068-291000-
SOUTH CENTRAL WISCONSIN

CITY           SKY/WX    TMP DP  RH WIND       PRES   REMARKS
BARABOO/DELLS  MOCLDY    58  51  75 CALM      30.05S
LONE ROCK      CLEAR     59  54  83 W5        30.06F
WATERTOWN      CLOUDY    57  54  89 CALM      30.03S
MADISON        MOCLDY    61  52  72 NW6       30.04F
MIDDLETON      FAIR      58  52  79 CALM      30.05S
MONROE         MOCLDY    59  52  77 W12       30.06S
JANESVILLE     PTCLDY    57  50  77 W3        30.04F
$$

WIZ051-052-058>065-066-070>072-291000-
SOUTHEAST WISCONSIN

CITY           SKY/WX    TMP DP  RH WIND       PRES   REMARKS
MILWAUKEE      CLOUDY    63  53  70 W5        30.01F
WAUKESHA       PTCLDY    55  52  88 W8        30.03S
MILWAUKEE/TIMM CLOUDY    61  52  72 W6        30.02S
RACINE         CLOUDY    59  54  83 W7        30.03F
BURLINGTON     CLEAR     53  51  92 CALM      30.03S
KENOSHA        CLEAR     56  53  90 W5        30.02F
FOND DU LAC    CLEAR     60  53  77 W5        30.01F
SHEBOYGAN      CLEAR     58  55  90 W3        30.00S
WEST BEND      PTCLDY    61  52  72 W7        30.01S
JUNEAU         PTCLDY    58  54  85 CALM      30.03F
$$

LSZ147-162-291000-
LAKE SUPERIOR

STATION/POSITION TIME  TEMP    WIND        PRES    WAVE
                       AIR SEA DIR/SP/G            HT/PER
                 (UTC) (F)     (DEG/KT/KT) (MB)    (FT/S)
W MID LAKE BUOY  0850   49 43  270/ 10/ 12 1015.9F   1
PORT WING        0800   58     230/  3/  3 1018.3S
SAXON HARBOR     0800          190/  4/  6 1017.6S
$$

LMZ867-665-643>646-291000-
LAKE MICHIGAN

STATION/POSITION TIME  TEMP    WIND        PRES    WAVE
                       AIR SEA DIR/SP/G            HT/PER
                 (UTC) (F)     (DEG/KT/KT) (MB)    (FT/S)
N MID LAKE BUOY  0850   57 53  300/  6/  8 1013.6F   1
NORTHPORT PIER   0800   63     290/  7/  9 1014.6F
SISTER BAY       0710   64     340/ 11/ 13   N/A
ALGOMA LAKESHORE 0806             CALM       N/A
KEWAUNEE LAKESHO 0900   58     300/  5/  6 1015.8S
SHEBOYGAN LAKESH 0900   64     280/  7/  9 1015.7F
PORT WASHINGTON  0840   63     280/  5/  7 1016.3F
ATWATER BUOY     0900   63     260/ 12     1016.9F
MILWAUKEE LAKESH 0900   64     290/  9/ 10   N/A
S MID LAKE BUOY  0850   60 60  230/ 10/ 12 1016.1F   1/ 5
KENOSHA   LAKESH 0900   61     260/  9/ 11 1016.3F
$$

TC  - TEMPERATURE IN CELSIUS
VSB - VISIBILITY IN STATUTE MILES
WCI - WIND CHILL INDEX
HX  - HEAT INDEX




USA.gov is the U.S. government's official web portal to all federal, state and local government web resources and services.